{"data":{"norad_id":55986,"intl_designator":"2023-042A","name":"STARLINK-5905","alt_names":[],"object_type":"PAYLOAD","status":"ACTIVE","operator":null,"country":"US","launch_date":"2023-03-24","launch_site_code":"AFETR","launch_vehicle":null,"mission":null,"orbit_class":"UNKNOWN","rcs_meters":null,"size_class":null,"mass_kg":null,"dimensions":null,"purposes":["comms"],"wikipedia_slug":null,"has_3d_model":false,"image_url":null,"decayed_at":null,"tle_current":{"epoch":"2026-09-20T20:25:43.301568Z","epoch_age_seconds":75884,"freshness":"FRESH","line1":"1 55986U 23042A   26263.85119562  .00000310  00000+0  20782-4 0  9996","line2":"2 55986  43.0041  37.7040 0001441 272.3923  87.6764 15.27575032193532","mean_motion":15.27575032,"eccentricity":0.0001441,"inclination_deg":43.0041,"raan_deg":37.704,"arg_perigee_deg":272.3923,"mean_anomaly_deg":87.6764,"bstar":2.0782e-5,"rev_number":19353,"period_min":94.267055289236,"perigee_km":482.07527299912,"apogee_km":484.05267111927,"semimajor_km":6861.2009720592,"source":"CELESTRAK","updated_at":"2026-09-21T09:00:33.349136Z"}}}